Flag for Germany Weather past 2 weeks in Leinfelden-Echterdingen, Baden-Württemberg, Germany

Now
41 °F

Sprinkles. Partly sunny.


Feels Like: 31 °F
Forecast: 33 / 45 °F
Wind: 22 mph from West

Location: Stuttgart-Echterdingen

Current Time: Mar 2, 2015 at 9:08:18 AM

Latest Report: Mar 2, 2015 at 8:20 AM


Visibility: N/A

Pressure: 29.71 "Hg

Humidity: 87%

Dew point: 37 °F

Location of Leinfelden-EchterdingenLocation

Historic Weather in Leinfelden-Echterdingen — Graph

°F

Leinfelden-Echterdingen temperature yesterday

Maximum temperature yesterday: 50 °F (at 2:20 PM)
Minimum temperature yesterday: 32 °F (at 12:50 AM)
Average temperature yesterday: 42 °F

Past Weeks' High & Low Weather Summary

 TemperatureHumidityPressure
High55 °F (Feb 20, 2:20 PM)100% (Feb 16, 9:50 PM)30.69 "Hg (Feb 16, 9:50 PM)
Low23 °F (Feb 20, 4:20 AM)34% (Feb 26, 3:20 PM)29.50 "Hg (Feb 23, 3:20 PM)
Average36 °F82%30.00 "Hg
* Reported Feb 15 7:20 AM — Mar 2 7:50 AM, Leinfelden-Echterdingen, Weather by CustomWeather, © 2015

Note: Actual official high and low records may vary slightly from our data, if they occured in-between our weather recording intervals... More about our weather records

Advertising

Leinfelden-Echterdingen weather history for previous 24 hours

 ConditionsComfort  
Time TempWeatherWind HumidityBarometerVisibility
7:50 AM
Mon, Mar 2
41 °FLight rain. Partly sunny.8 mph93%29.68 "HgN/A
7:20 AM41 °FPartly sunny.9 mph87%29.65 "HgN/A
6:50 AM43 °FLight rain. Partly cloudy.17 mph81%29.65 "HgN/A
6:20 AM43 °FRain showers. Partly cloudy.29 mph87%29.65 "HgN/A
5:50 AM46 °FLight rain. Partly cloudy.23 mph82%29.62 "HgN/A
5:20 AM46 °FLight rain. Partly cloudy.28 mph82%29.62 "HgN/A
4:50 AM46 °FLight rain. Partly cloudy.24 mph82%29.62 "HgN/A
4:20 AM48 °FRain. Passing clouds.9 mph87%29.62 "HgN/A
3:50 AM48 °FPassing clouds.10 mph87%29.62 "HgN/A
3:20 AM46 °FLight rain. Passing clouds.10 mph93%29.62 "HgN/A
2:50 AM46 °FLight rain. Passing clouds.14 mph93%29.62 "HgN/A
2:20 AM46 °FLight rain. Passing clouds.14 mph87%29.62 "HgN/A
1:50 AM46 °FLight rain. Partly cloudy.10 mph87%29.65 "HgN/A
1:20 AM46 °FLight rain. Partly cloudy.9 mph87%29.65 "HgN/A
12:50 AM48 °FLight rain. Passing clouds.13 mph82%29.68 "HgN/A
12:20 AM48 °FPartly cloudy.10 mph76%29.68 "HgN/A
11:50 PM
Sun, Mar 1
48 °FPartly cloudy.12 mph76%29.68 "HgN/A
11:20 PM46 °FPassing clouds.9 mph82%29.71 "HgN/A
10:50 PM46 °FPartly cloudy.7 mph82%29.71 "HgN/A
10:20 PM46 °FPartly cloudy.7 mph82%29.74 "HgN/A
9:50 PM48 °FPassing clouds.9 mph82%29.74 "HgN/A
9:20 PM48 °FPassing clouds.7 mph82%29.74 "HgN/A
8:20 PM48 °FPassing clouds.5 mph82%29.77 "HgN/A
7:50 PM48 °FPassing clouds.7 mph82%29.74 "HgN/A
7:20 PM48 °FPassing clouds.8 mph82%29.77 "HgN/A
6:50 PM48 °FPassing clouds.9 mph82%29.77 "HgN/A
6:20 PM50 °FPassing clouds.9 mph76%29.74 "HgN/A
5:50 PM48 °FPartly sunny.7 mph82%29.77 "HgN/A
5:20 PM50 °FPartly sunny.6 mph82%29.74 "HgN/A
4:20 PM48 °FPartly sunny.5 mph87%29.77 "HgN/A
3:50 PM48 °FSprinkles. Partly sunny.7 mph87%29.77 "HgN/A
3:20 PM48 °FSprinkles. Partly sunny.7 mph87%29.77 "HgN/A
2:50 PM50 °FPartly sunny.12 mph76%29.77 "HgN/A
2:20 PM50 °FPartly sunny.9 mph76%29.77 "HgN/A
1:50 PM48 °FLight rain. Partly sunny.8 mph82%29.77 "HgN/A
1:20 PM48 °FPartly sunny.9 mph82%29.77 "HgN/A
12:50 PM46 °FPartly sunny.8 mph87%29.80 "HgN/A
12:20 PM46 °FPartly sunny.10 mph82%29.80 "HgN/A
11:50 AM46 °FPartly sunny.13 mph82%29.80 "HgN/A
11:20 AM46 °FPartly sunny.12 mph82%29.77 "HgN/A
10:50 AM45 °FBroken clouds.14 mph81%29.77 "HgN/A
10:20 AM43 °FBroken clouds.13 mph87%29.77 "HgN/A
9:50 AM41 °FBroken clouds.15 mph87%29.77 "HgN/A
9:20 AM39 °FBroken clouds.5 mph87%29.80 "HgN/A
Weather by CustomWeather, © 2015

See weather overviewHow to use our weather pages